Weather reports worldwide

Advertisment
Levens Hall, United Kingdom (99172): temperature & dewpoint: 16.07.2019 03:00:00 - 22.07.2019 03:00:00 (BST)Levens Hall, United Kingdom (99172): precipitation: 16.07.2019 03:00:00 - 22.07.2019 03:00:00 (BST)
Date & Time tt [°C] td [°C] rr [mm]
22.07.2019 03:00:00 17,9 17,5 -
22.07.2019 02:00:00 17,8 17,4 3,0
22.07.2019 01:00:00 16,6 16,3 7,0
22.07.2019 00:00:00 16,0 15,5 5,8
21.07.2019 23:00:00 15,7 14,9 7,0
21.07.2019 22:00:00 16,0 15,1 4,0
21.07.2019 21:00:00 16,5 15,7 2,2
21.07.2019 20:00:00 17,6 15,0 0,6
21.07.2019 19:00:00 18,9 15,3 0,0
21.07.2019 18:00:00 18,9 14,7 0,0
21.07.2019 17:00:00 18,5 14,0 0,0
21.07.2019 16:00:00 19,0 15,1 0,0
21.07.2019 15:00:00 19,0 14,2 0,0
21.07.2019 14:00:00 19,2 14,2 0,0
21.07.2019 13:00:00 18,4 14,3 0,0
21.07.2019 12:00:00 17,8 13,4 0,0
21.07.2019 11:00:00 17,6 14,7 0,0
21.07.2019 10:00:00 16,6 14,5 0,0
21.07.2019 09:00:00 16,6 14,7 0,0
21.07.2019 08:00:00 16,9 14,9 0,0
21.07.2019 07:00:00 14,8 13,4 0,0
21.07.2019 06:00:00 12,8 11,6 0,0
21.07.2019 05:00:00 12,7 11,4 0,0
21.07.2019 04:00:00 12,5 11,2 0,0
21.07.2019 03:00:00 12,7 11,2 0,0
21.07.2019 02:00:00 13,0 11,7 0,0
21.07.2019 01:00:00 12,4 11,3 0,0
21.07.2019 00:00:00 12,5 10,3 0,0
20.07.2019 23:00:00 14,7 11,3 0,0
20.07.2019 22:00:00 15,1 10,4 0,0
20.07.2019 21:00:00 15,9 10,7 0,0
20.07.2019 20:00:00 16,6 10,5 0,0
20.07.2019 19:00:00 18,2 9,8 0,0
20.07.2019 18:00:00 18,7 9,9 0,0
20.07.2019 17:00:00 18,9 11,3 0,0
20.07.2019 16:00:00 18,4 12,8 0,0
20.07.2019 15:00:00 18,8 14,2 0,0
20.07.2019 14:00:00 17,4 14,5 0,0
20.07.2019 13:00:00 17,7 15,2 0,0
20.07.2019 12:00:00 17,4 15,2 0,0
20.07.2019 11:00:00 16,3 15,5 1,6
20.07.2019 10:00:00 15,4 15,1 12,2
20.07.2019 09:00:00 15,6 14,5 2,8
20.07.2019 08:00:00 16,1 15,0 0,0
20.07.2019 07:00:00 16,0 15,3 0,0
20.07.2019 06:00:00 15,5 14,9 0,4
20.07.2019 05:00:00 15,8 15,1 2,0
20.07.2019 04:00:00 16,0 15,0 2,4
20.07.2019 03:00:00 16,4 15,4 0,2
20.07.2019 02:00:00 16,6 15,6 0,0
20.07.2019 01:00:00 16,7 15,9 0,0
20.07.2019 00:00:00 16,7 15,7 0,4
19.07.2019 23:00:00 16,9 16,0 0,0
19.07.2019 22:00:00 17,2 15,7 0,0
19.07.2019 21:00:00 17,3 16,8 2,0
19.07.2019 20:00:00 17,6 16,3 0,6
19.07.2019 19:00:00 18,5 17,4 1,4
19.07.2019 18:00:00 18,8 18,2 0,0
19.07.2019 17:00:00 17,2 16,1 1,6
19.07.2019 16:00:00 16,9 15,4 1,0
19.07.2019 15:00:00 17,6 15,5 0,8
19.07.2019 14:00:00 17,7 14,1 0,2
19.07.2019 13:00:00 17,0 13,0 0,0
19.07.2019 12:00:00 17,2 14,1 0,0
19.07.2019 11:00:00 17,2 13,3 0,0
19.07.2019 10:00:00 16,5 13,4 0,0
19.07.2019 09:00:00 15,4 13,8 0,0
19.07.2019 08:00:00 14,9 13,8 0,6
19.07.2019 07:00:00 14,9 13,5 0,8
19.07.2019 06:00:00 14,5 13,6 0,0
19.07.2019 05:00:00 14,5 13,6 0,0
19.07.2019 04:00:00 14,0 13,3 0,0
19.07.2019 03:00:00 14,6 14,1 0,2
19.07.2019 02:00:00 14,7 14,1 0,2
19.07.2019 01:00:00 14,4 13,6 0,0
19.07.2019 00:00:00 14,8 13,2 0,0
18.07.2019 23:00:00 14,5 12,8 0,0
18.07.2019 22:00:00 15,3 12,4 0,0
18.07.2019 21:00:00 16,2 12,3 0,0
18.07.2019 20:00:00 16,8 11,6 0,0
18.07.2019 19:00:00 17,0 11,2 0,0
18.07.2019 18:00:00 17,3 11,0 0,0
18.07.2019 17:00:00 18,8 11,6 0,0
18.07.2019 16:00:00 18,7 12,2 0,0
18.07.2019 15:00:00 17,9 12,0 0,0
18.07.2019 14:00:00 18,2 12,8 0,0
18.07.2019 13:00:00 17,1 12,2 0,0
18.07.2019 12:00:00 17,2 12,8 0,0
18.07.2019 11:00:00 16,3 12,6 0,0
18.07.2019 10:00:00 15,6 12,8 0,0
18.07.2019 09:00:00 15,6 13,8 0,0
18.07.2019 08:00:00 13,9 13,7 0,0
18.07.2019 07:00:00 12,7 12,4 0,0
18.07.2019 06:00:00 11,7 11,3 0,0
18.07.2019 05:00:00 11,4 10,9 0,2
18.07.2019 04:00:00 13,0 12,1 0,2
18.07.2019 03:00:00 13,5 12,6 0,0
18.07.2019 02:00:00 15,2 14,6 1,4
18.07.2019 01:00:00 15,1 14,8 1,6
18.07.2019 00:00:00 15,0 14,7 0,8
17.07.2019 23:00:00 15,0 14,7 1,4
17.07.2019 22:00:00 14,8 14,4 2,2
17.07.2019 21:00:00 14,9 14,4 1,4
17.07.2019 20:00:00 15,0 14,2 0,2
17.07.2019 19:00:00 15,5 14,5 0,4
17.07.2019 18:00:00 16,6 14,3 0,2
17.07.2019 17:00:00 16,4 14,4 0,0
17.07.2019 16:00:00 17,1 14,6 0,0
17.07.2019 15:00:00 18,6 13,9 0,0
17.07.2019 14:00:00 19,4 14,0 0,0
17.07.2019 13:00:00 19,0 12,6 0,0
17.07.2019 12:00:00 19,2 14,8 0,0
17.07.2019 11:00:00 19,8 14,6 0,0
17.07.2019 10:00:00 18,2 14,1 0,0
17.07.2019 09:00:00 16,5 14,5 0,0
17.07.2019 08:00:00 14,2 13,4 0,0
17.07.2019 07:00:00 11,5 11,3 0,0
17.07.2019 06:00:00 10,0 9,7 0,0
17.07.2019 05:00:00 10,2 9,9 0,0
17.07.2019 04:00:00 10,9 10,6 0,0
17.07.2019 03:00:00 11,1 10,8 0,0
17.07.2019 02:00:00 11,7 11,3 0,0
17.07.2019 01:00:00 12,7 12,1 0,0
17.07.2019 00:00:00 13,5 12,8 0,0
16.07.2019 23:00:00 14,5 13,4 0,0
16.07.2019 22:00:00 15,4 13,2 0,0
16.07.2019 21:00:00 17,4 13,3 0,0
16.07.2019 20:00:00 18,9 12,7 0,0
16.07.2019 19:00:00 20,3 13,3 0,0
16.07.2019 18:00:00 20,7 13,0 0,0
16.07.2019 17:00:00 21,8 11,8 0,0
16.07.2019 16:00:00 21,3 14,0 0,0
16.07.2019 15:00:00 21,3 14,4 0,0
16.07.2019 14:00:00 21,4 14,3 0,0
16.07.2019 13:00:00 20,1 12,7 0,0
16.07.2019 12:00:00 19,8 15,6 0,0
16.07.2019 11:00:00 19,2 15,7 0,0
16.07.2019 10:00:00 18,8 15,6 0,0
16.07.2019 09:00:00 16,9 14,6 0,0
16.07.2019 08:00:00 14,1 13,1 0,0
16.07.2019 07:00:00 12,2 11,5 0,0
16.07.2019 06:00:00 11,3 10,9 0,0
16.07.2019 05:00:00 10,9 10,5 0,0
16.07.2019 04:00:00 10,8 10,3 0,0
16.07.2019 03:00:00 11,8 11,0 0,0

tt = temperature
td = dewpoint
rr = precipitation

Next stations